This is the latest recevied weather packets stored in our database for station/object DL7HMX-13. If no packets are shown the sender has not sent any weather packets the latest 10 day(s).
| Time | Temp. | Humidity | Pressure | Rain* | Wind** | Luminosity | Snow |
|---|---|---|---|---|---|---|---|
| 1777346426 | 5° C | 86% | 1018.4 hPa | 0 mm | - | 0 W/m² | - |
| 1777345828 | 5° C | 85% | 1018.6 hPa | 0 mm | - | 0 W/m² | - |
| 1777345230 | 5° C | 85% | 1018.6 hPa | 0 mm | - | 0 W/m² | - |
| 1777344617 | 5.56° C | 87% | 1018.5 hPa | 0 mm | - | 0 W/m² | - |
| 1777344020 | 5.56° C | 90% | 1018.7 hPa | 0 mm | - | 0 W/m² | - |
| 1777343423 | 5.56° C | 91% | 1018.7 hPa | 0 mm | - | 0 W/m² | - |
| 1777342827 | 5.56° C | 90% | 1018.6 hPa | 0 mm | - | 0 W/m² | - |
| 1777342228 | 5.56° C | 90% | 1018.4 hPa | 0 mm | - | 0 W/m² | - |
| 1777341631 | 5.56° C | 89% | 1018.6 hPa | 0 mm | - | 0 W/m² | - |
| 1777341017 | 5.56° C | 88% | 1018.6 hPa | 0 mm | - | 0 W/m² | - |
| 1777340421 | 6.11° C | 88% | 1018.6 hPa | 0 mm | - | 0 W/m² | - |
| 1777339823 | 6.11° C | 89% | 1018.6 hPa | 0 mm | - | 0 W/m² | - |
| 1777339227 | 6.11° C | 88% | 1018.8 hPa | 0 mm | - | 0 W/m² | - |
| 1777338629 | 6.11° C | 87% | 1018.8 hPa | 0 mm | - | 0 W/m² | - |
| 1777338016 | 6.11° C | 86% | 1018.8 hPa | 0 mm | - | 0 W/m² | - |
| 1777337419 | 6.11° C | 86% | 1018.8 hPa | 0 mm | - | 0 W/m² | - |
| 1777336821 | 6.11° C | 86% | 1018.7 hPa | 0 mm | - | 0 W/m² | - |
| 1777336225 | 6.11° C | 87% | 1018.6 hPa | 0 mm | - | 0 W/m² | - |
| 1777335628 | 6.11° C | 86% | 1018.9 hPa | 0 mm | - | 0 W/m² | - |
| 1777335030 | 6.11° C | 85% | 1018.8 hPa | 0 mm | - | 0 W/m² | - |
| 1777334418 | 6.67° C | 84% | 1018.9 hPa | 0 mm | - | 0 W/m² | - |
| 1777333821 | 6.67° C | 84% | 1018.8 hPa | 0 mm | - | 0 W/m² | - |
| 1777333223 | 6.67° C | 84% | 1018.9 hPa | 0 mm | - | 0 W/m² | - |
| 1777332627 | 6.67° C | 83% | 1018.9 hPa | 0 mm | - | 0 W/m² | - |
| 1777332028 | 6.67° C | 81% | 1019 hPa | 0 mm | - | 0 W/m² | - |
* Rain latest hour (hover to see other rain measurements)
** Current wind speed in m/s (hover to see current wind gust speed)